Change the Weather History Date:

Friday, October 19, 2012

  Actual Average Record
Temperature  
Mean Temperature 55 °F 50 °F  
Max Temperature 68 °F 65 °F 85 °F (1940)
Min Temperature 41 °F 35 °F 12 °F (1999)
Degree Days  
Heating Degree Days 10 15  
Month to date heating degree days 238 212  
Cooling Degree Days 0 0  
Month to date cooling degree days 0 2  
Growing Degree Days 4 (Base 50)    
Moisture  
Dew Point 28 °F    
Average Humidity 39    
Maximum Humidity 57    
Minimum Humidity 23    
Precipitation  
Precipitation 0.00 in 0.02 in 0.58 in (1979)
Month to date precipitation 0.19 0.41  
Sea Level Pressure  
Sea Level Pressure 29.95 in    
Wind  
Wind Speed 10 mph (ESE)    
Max Wind Speed 15 mph    
Max Gust Speed -    
Visibility 10 miles    
Events      
T = Trace of Precipitation, MM = Missing Value Source: NWS Daily Summary

Daily Weather History Graph

Daily Weather History Graph

Search for Another Location

Airport or City:

Trip Planner

Search our weather history database for the weather conditions in past years. The results will help you decide how hot, cold, wet, or windy it might be!

Date:

Astronomy

Oct. 19, 2012 Rise Set
Actual Time 8:02 AM MDT 6:53 PM MDT
Civil Twilight 7:33 AM MDT 7:22 PM MDT
Nautical Twilight 7:00 AM MDT 7:55 PM MDT
Astronomical Twilight 6:27 AM MDT 8:28 PM MDT
Moon 12:55 PM MDT (10/19) 10:31 PM MDT (10/19)
Length of Visible Light 11h 48m
Length of Day
10h 50m
Waxing Crescent, 24% of the Moon is Illuminated
Oct 19
Waxing Crescent
Oct 21
First Quarter
Oct 29
Full
Nov 6
Last Quarter
Nov 13
New

Hourly Weather History & Observations

Time (MDT) Temp. Windchill Dew Point Humidity Pressure Visibility Wind Dir Wind Speed Gust Speed Precip Events Conditions
12:55 AM 45.3 °F 39.3 °F 24.6 °F 44% 30.08 in 10.0 mi SE 12.7 mph - N/A   Clear
1:55 AM 46.2 °F 40.5 °F 24.8 °F 43% 30.06 in 10.0 mi SE 12.7 mph - N/A   Clear
2:55 AM 44.4 °F 37.5 °F 26.1 °F 49% 30.05 in 10.0 mi ESE 15.0 mph - N/A   Clear
3:55 AM 43.3 °F 37.2 °F 26.8 °F 52% 30.04 in 10.0 mi ESE 11.5 mph - N/A   Partly Cloudy
4:55 AM 44.1 °F 37.4 °F 25.7 °F 49% 30.02 in 10.0 mi ESE 13.8 mph - N/A   Clear
5:55 AM 41.2 °F 35.5 °F 26.8 °F 57% 30.02 in 10.0 mi East 9.2 mph - N/A   Overcast
6:55 AM 41.0 °F 33.9 °F 27.0 °F 57% 30.03 in 10.0 mi East 12.7 mph - N/A   Overcast
7:55 AM 41.5 °F 35.0 °F 27.3 °F 57% 30.04 in 10.0 mi East 11.5 mph - N/A   Overcast
8:55 AM 45.1 °F 38.8 °F 26.6 °F 48% 30.05 in 10.0 mi East 13.8 mph - N/A   Overcast
9:55 AM 48.2 °F - 26.4 °F 43% 30.05 in 10.0 mi East 15.0 mph - N/A   Overcast
10:55 AM 52.0 °F - 26.8 °F 38% 30.05 in 10.0 mi East 13.8 mph - N/A   Overcast
11:55 AM 57.7 °F - 25.2 °F 29% 30.02 in 10.0 mi East 11.5 mph - N/A   Mostly Cloudy
12:55 PM 60.8 °F - 26.4 °F 27% 30.01 in 10.0 mi ESE 6.9 mph - N/A   Mostly Cloudy
1:55 PM 62.2 °F - 26.1 °F 25% 29.98 in 10.0 mi East 3.5 mph - N/A   Overcast
2:55 PM 63.9 °F - 26.8 °F 25% 29.94 in 10.0 mi SE 5.8 mph - N/A   Overcast
3:55 PM 63.9 °F - 29.1 °F 27% 29.91 in 10.0 mi West 4.6 mph - N/A   Mostly Cloudy
4:55 PM 66.9 °F - 28.0 °F 23% 29.86 in 10.0 mi Calm Calm - N/A   Overcast
5:55 PM 63.9 °F - 29.7 °F 28% 29.85 in 10.0 mi South 5.8 mph - N/A   Overcast
6:55 PM 60.3 °F - 30.6 °F 33% 29.84 in 10.0 mi SSW 3.5 mph - N/A   Overcast
7:55 PM 58.3 °F - 34.0 °F 40% 29.82 in 10.0 mi NE 3.5 mph - N/A   Overcast
8:55 PM 58.3 °F - 35.6 °F 43% 29.80 in 10.0 mi NNE 8.1 mph - N/A   Overcast
9:55 PM 57.4 °F - 34.3 °F 42% 29.78 in 10.0 mi NNE 5.8 mph - N/A   Overcast
10:55 PM 57.9 °F - 32.9 °F 39% 29.76 in 10.0 mi ENE 6.9 mph - N/A   Mostly Cloudy
11:55 PM 60.6 °F - 28.4 °F 29% 29.74 in 10.0 mi East 6.9 mph - N/A   Overcast